Snowfall_Accumulation
1.5 1.4 1.4 1.2 1.2 1.5 1.3 1.5 1.6 1.6 1.2 1.2 1.1 1.1 1.0 1.1 1.0 0.8 0.9 0.8 0.8 0.7 0.5 0.7 0.8 0.5 0.6 0.4 0.5 0.6 0.8 1.3 1.8 0.6 0.3 0.2 0.2 0.3 0.2 0.0 0.0 0.1 0.2
1.7 1.6 1.4 1.4 1.4 1.4 1.3 1.3 1.5 1.7 1.2 1.2 1.3 1.2 1.3 1.0 0.9 1.1 0.9 1.1 1.2 1.0 1.0 0.8 0.8 0.8 1.0 0.8 0.7 0.7 0.8 0.9 1.6 1.5 0.7 0.7 0.7 0.4 0.4 0.2 0.2 0.2 0.1
1.7 1.7 1.7 1.5 1.4 1.5 1.5 1.1 1.2 1.4 1.5 1.2 1.3 1.3 1.2 1.0 0.9 0.9 1.0 0.9 1.1 1.1 1.1 1.1 1.0 1.0 1.1 1.2 0.9 1.0 0.9 0.9 1.3 2.0 1.5 1.1 1.0 0.8 0.7 0.7 0.4 0.3 0.1
1.9 1.9 2.0 2.4 2.1 2.1 1.7 1.4 1.5 1.3 1.6 1.7 1.2 1.3 1.2 1.1 1.0 1.0 1.1 1.5 1.5 1.5 1.2 1.2 1.2 1.4 1.4 1.4 1.6 1.6 1.5 2.0 2.2 2.4 2.4 2.1 1.8 1.2 1.1 1.2 1.2 0.9 0.6
2.2 1.8 2.1 2.1 2.1 2.3 1.7 1.7 1.6 1.8 1.9 1.8 1.9 1.7 1.4 1.2 1.4 1.4 1.7 2.0 2.0 1.8 1.6 1.6 1.7 1.6 1.5 1.8 2.1 2.8 3.0 3.6 3.9 4.6 4.3 3.2 1.9 1.5 1.3 1.2 1.9 1.7 1.3
2.3 2.7 2.0 1.6 1.9 2.3 2.0 2.0 1.8 1.6 1.8 2.2 2.4 2.2 1.7 1.5 1.6 1.7 2.2 2.4 2.1 2.1 2.3 2.1 2.1 2.2 2.1 1.9 1.8 2.2 3.6 5.5 6.6 6.8 5.1 3.4 1.9 1.2 1.4 1.8 2.6 3.4 2.7
2.5 2.5 2.0 1.9 1.6 1.9 2.1 2.0 1.8 2.1 1.9 2.1 2.2 2.3 2.4 1.8 1.7 1.9 2.4 2.9 2.6 2.9 2.8 3.0 3.0 2.5 2.3 2.2 2.2 2.1 2.5 3.0 4.1 4.8 4.9 2.9 1.8 1.7 2.8 3.9 3.9 4.3 3.4
2.5 2.7 2.0 1.6 2.1 1.8 2.0 2.0 1.8 2.7 2.6 3.1 2.9 2.7 2.5 2.3 2.0 2.5 3.0 3.6 3.2 3.4 3.2 2.7 2.6 2.3 2.3 3.0 3.3 3.9 2.8 2.1 1.5 1.9 2.4 2.1 2.0 1.9 3.3 5.0 5.0 4.4 2.6
2.6 2.6 2.0 2.0 2.0 2.3 2.3 2.0 2.6 2.7 3.8 3.4 3.7 3.8 3.6 3.4 2.2 3.3 4.0 3.9 3.6 3.0 2.5 2.2 2.3 2.3 2.4 3.7 5.1 5.5 3.2 1.9 1.3 1.5 2.0 2.4 2.3 2.7 3.2 5.8 7.0 7.2 6.4
3.0 3.3 2.8 2.3 2.4 3.1 3.8 3.5 4.0 4.3 4.7 4.5 4.8 3.9 3.6 3.6 2.7 3.3 3.7 3.9 3.7 2.8 2.4 1.9 1.9 2.4 3.2 4.8 5.7 5.9 5.2 3.2 2.9 2.0 1.7 1.5 1.9 1.7 2.1 3.9 6.5 10.3 9.5
3.9 3.8 3.6 3.5 3.6 4.0 4.5 4.0 4.5 4.4 4.0 3.8 3.8 3.2 3.1 3.0 2.1 2.6 3.1 4.3 5.0 4.1 3.2 2.5 1.7 2.8 4.1 5.0 5.3 5.4 5.4 5.3 4.8 4.2 3.4 3.0 2.8 2.6 2.2 2.3 4.0 8.4 12.1
4.3 4.4 4.8 3.9 3.5 4.1 4.3 4.7 4.1 3.9 4.0 4.0 3.7 3.4 3.1 2.4 2.4 2.8 3.1 4.0 4.8 5.5 4.5 3.2 3.0 3.7 4.5 4.5 4.6 4.4 5.1 5.7 6.1 5.7 5.0 4.4 3.8 3.9 3.6 3.3 3.7 4.2 5.8
4.1 4.2 4.3 4.1 4.1 4.2 4.3 4.3 4.3 4.0 4.2 4.1 3.9 3.6 3.4 3.2 3.1 3.1 3.3 3.9 4.4 5.2 4.6 4.1 4.4 4.8 4.8 4.4 3.9 4.2 4.6 5.6 6.4 6.7 6.1 4.8 4.4 4.3 4.2 4.4 4.1 4.0 4.4
4.6 4.6 4.5 4.7 4.6 4.3 4.3 4.3 4.5 4.4 4.9 4.8 4.6 4.8 4.3 3.8 3.8 4.1 4.7 4.7 4.9 5.2 5.1 4.5 4.2 4.0 4.3 4.3 3.9 4.6 4.7 5.5 6.5 7.1 6.7 5.9 5.3 5.6 5.9 5.7 6.3 6.2 7.2
5.1 5.5 5.7 5.8 5.7 5.6 5.4 5.2 5.2 5.3 5.7 7.2 7.4 6.7 6.7 6.3 5.3 5.8 7.2 7.1 6.9 7.0 6.8 6.0 5.0 4.6 4.7 5.0 5.0 4.8 5.2 5.5 7.1 6.9 7.6 7.9 7.2 7.0 7.0 7.0 8.7 9.3 9.9
6.0 6.0 6.1 6.0 6.1 5.8 5.5 5.4 4.8 4.8 4.2 4.8 5.3 6.0 6.1 5.9 5.6 6.2 6.5 6.7 6.9 6.9 7.7 7.6 5.7 5.0 5.4 5.5 5.8 6.4 6.4 7.0 7.5 8.2 8.8 9.2 9.6 9.4 9.0 8.3 9.3 10.7 10.7
6.5 6.2 6.0 6.0 5.5 5.7 5.2 5.3 5.9 4.8 4.1 4.0 4.0 4.6 5.2 5.2 5.5 5.9 6.1 6.3 6.2 6.3 8.1 7.0 5.9 5.7 6.0 6.1 6.4 6.9 7.4 7.2 7.9 9.4 10.2 10.9 11.8 11.3 10.5 10.3 10.4 10.7 10.2
5.8 6.1 6.4 6.1 6.3 5.8 5.8 5.4 5.5 5.8 5.9 5.1 4.3 4.0 4.2 4.5 5.0 5.1 5.4 5.6 6.3 5.7 6.7 6.8 6.9 6.6 6.6 6.8 7.2 7.7 7.7 7.9 8.9 9.4 10.3 11.7 12.9 13.7 12.8 11.6 10.7 11.1 11.5
6.2 6.9 7.1 6.9 6.9 6.7 6.9 6.6 6.4 5.9 5.8 6.1 5.8 5.5 4.4 4.2 3.8 4.0 4.5 5.8 6.7 6.9 6.7 6.9 7.5 7.8 8.1 8.2 8.3 8.6 9.1 9.5 9.7 10.9 11.3 12.2 13.6 15.4 14.7 12.8 12.3 11.8 12.7
6.1 7.0 7.5 7.8 7.8 7.8 7.2 7.0 7.4 6.9 6.7 6.2 6.1 6.5 6.3 6.4 6.9 6.2 5.7 6.0 6.6 6.7 6.6 7.1 7.4 7.9 8.4 8.9 9.4 9.6 9.8 9.8 10.3 11.3 11.9 12.5 13.2 15.2 15.6 14.3 14.0 14.0 13.0
5.8 6.4 6.6 7.0 7.3 8.1 8.1 8.3 8.1 8.2 7.5 7.0 7.0 7.0 7.8 8.8 7.7 6.8 6.9 7.4 7.4 7.6 7.8 7.8 7.6 8.1 8.3 9.0 9.9 10.1 10.2 10.0 10.1 11.6 12.9 13.2 13.8 14.5 14.3 14.9 15.1 14.6 14.6
5.6 5.9 6.2 6.7 7.2 7.8 8.2 8.3 8.5 8.7 8.2 7.7 7.5 7.4 7.1 7.5 7.2 6.9 6.9 7.4 7.5 8.0 8.6 9.2 8.7 8.1 9.1 10.6 11.6 12.2 11.4 10.0 10.0 11.7 13.0 13.3 13.9 14.5 15.0 16.0 15.8 15.6 15.4
5.2 5.5 6.0 6.3 7.0 7.5 7.8 8.0 8.3 8.2 8.2 7.9 7.6 7.4 7.2 7.1 6.9 7.1 7.2 7.6 7.5 7.7 7.7 8.5 9.0 8.4 8.2 9.7 11.3 14.0 15.1 12.5 11.4 13.4 16.9 17.0 16.0 15.9 16.3 16.3 15.1 15.4 14.4
5.5 5.7 6.4 6.6 7.0 7.4 7.6 7.6 7.7 8.0 8.0 7.8 7.7 7.9 7.9 8.0 7.5 7.5 7.8 7.8 7.8 7.6 7.5 8.1 8.7 8.7 8.5 9.6 10.4 11.3 12.7 14.2 17.3 19.9 21.0 22.0 19.1 16.4 16.0 15.7 14.4 14.1 14.2
6.0 6.2 6.8 7.2 7.5 7.7 7.9 7.9 7.6 7.5 7.6 7.8 7.9 8.2 8.1 7.7 7.9 8.0 7.8 7.7 7.8 7.7 7.1 7.3 8.0 8.5 8.5 8.8 9.2 10.0 10.3 13.0 17.7 21.5 22.4 21.2 18.4 15.9 15.8 15.4 14.6 14.4 14.3
6.3 6.6 6.9 7.3 7.5 7.7 7.9 7.9 7.7 7.6 7.9 7.9 7.9 7.9 8.0 8.0 7.9 7.6 7.8 8.1 8.1 7.7 7.3 7.6 7.9 8.4 8.5 8.4 8.2 8.9 10.7 12.3 13.5 14.9 19.5 21.5 19.3 16.1 15.8 16.2 14.9 14.4 14.3